• în România
  • Lista ţărilor
  • Pe 7 zile
  • Temperatura apei
  • Hartă satelitară
  • Meteo pe hartă
  • Widget-uri
  • user-avatar
    Intrare

    Meteo pe oră la Lenkoran

    Astăzi, 20 Iulie, Vineri

    Timp Temperatura Precipitaţii Vânt Presiune Umiditate
    00:00 +24°C° 0 mm 1 m/s 629 mmHg 61%
    01:00 +23°C° 0 mm 1 m/s 629 mmHg 61%
    02:00 +23°C° 0 mm 1 m/s 629 mmHg 62%
    03:00 +23°C° 0 mm 1 m/s 629 mmHg 62%
    04:00 +23°C° 0 mm 1 m/s 629 mmHg 63%
    05:00 +23°C° 0 mm 1 m/s 629 mmHg 63%
    06:00 +24°C° 0 mm 1 m/s 630 mmHg 63%
    07:00 +25°C° 0 mm 2 m/s 630 mmHg 57%
    08:00 +27°C° 0 mm 2 m/s 631 mmHg 50%
    09:00 +29°C° 0 mm 3 m/s 631 mmHg 44%
    10:00 +30°C° 0 mm 3 m/s 631 mmHg 41%
    11:00 +32°C° 0 mm 4 m/s 631 mmHg 37%
    12:00 +33°C° 0 mm 4 m/s 631 mmHg 34%
    13:00 +33°C° 0 mm 4 m/s 631 mmHg 37%
    14:00 +33°C° 0 mm 4 m/s 630 mmHg 40%
    15:00 +32°C° 0 mm 4 m/s 630 mmHg 42%
    16:00 +30°C° 0 mm 4 m/s 630 mmHg 49%
    17:00 +28°C° 0 mm 3 m/s 629 mmHg 56%
    18:00 +26°C° 0 mm 3 m/s 629 mmHg 63%
    19:00 +25°C° 0 mm 2 m/s 629 mmHg 68%
    20:00 +23°C° 0 mm 2 m/s 629 mmHg 74%
    21:00 +22°C° 0 mm 1 m/s 629 mmHg 79%
    22:00 +22°C° 0 mm 1 m/s 629 mmHg 79%
    23:00 +21°C° 0 mm 1 m/s 629 mmHg 80%

    Mâine, 21 Iulie, Sâmbătă

    Timp Temperatura Precipitaţii Vânt Presiune Umiditate
    00:00 +21°C° 0 mm 1 m/s 629 mmHg 80%
    01:00 +19°C° 0 mm 2 m/s 629 mmHg 80%
    02:00 +19°C° 0 mm 2 m/s 629 mmHg 79%
    03:00 +19°C° 0 mm 2 m/s 629 mmHg 79%
    04:00 +19°C° 0 mm 2 m/s 629 mmHg 76%
    05:00 +20°C° 0 mm 3 m/s 630 mmHg 72%
    06:00 +20°C° 0 mm 3 m/s 630 mmHg 69%
    07:00 +22°C° 0 mm 3 m/s 631 mmHg 61%
    08:00 +24°C° 0 mm 3 m/s 631 mmHg 53%
    09:00 +26°C° 0 mm 3 m/s 632 mmHg 46%
    10:00 +27°C° 0 mm 3 m/s 632 mmHg 44%
    11:00 +28°C° 0 mm 4 m/s 632 mmHg 41%
    12:00 +29°C° 0 mm 4 m/s 632 mmHg 39%
    13:00 +29°C° 0 mm 4 m/s 632 mmHg 40%
    14:00 +29°C° 0 mm 4 m/s 632 mmHg 41%
    15:00 +29°C° 0 mm 4 m/s 631 mmHg 41%
    16:00 +27°C° 0 mm 4 m/s 631 mmHg 46%
    17:00 +26°C° 0 mm 4 m/s 631 mmHg 51%
    18:00 +24°C° 0 mm 3 m/s 630 mmHg 55%
    19:00 +22°C° 0 mm 3 m/s 630 mmHg 61%
    20:00 +20°C° 0 mm 3 m/s 631 mmHg 67%
    21:00 +19°C° 0 mm 3 m/s 631 mmHg 72%
    22:00 +19°C° 0 mm 2 m/s 631 mmHg 72%
    23:00 +18°C° 0 mm 2 m/s 631 mmHg 72%

    Poimâine, 22 Iulie, Duminică

    Timp Temperatura Precipitaţii Vânt Presiune Umiditate
    00:00 +18°C° 0 mm 2 m/s 631 mmHg 72%
    01:00 +18°C° 0 mm 2 m/s 631 mmHg 72%
    02:00 +18°C° 0 mm 2 m/s 631 mmHg 71%
    03:00 +18°C° 0 mm 2 m/s 631 mmHg 71%
    04:00 +18°C° 0 mm 2 m/s 631 mmHg 68%
    05:00 +19°C° 0 mm 3 m/s 631 mmHg 66%
    06:00 +19°C° 0 mm 3 m/s 632 mmHg 63%
    07:00 +21°C° 0 mm 3 m/s 632 mmHg 56%
    08:00 +22°C° 0 mm 3 m/s 633 mmHg 48%
    09:00 +25°C° 0 mm 4 m/s 633 mmHg 41%
    10:00 +26°C° 0 mm 4 m/s 633 mmHg 38%
    11:00 +27°C° 0 mm 4 m/s 633 mmHg 36%
    12:00 +28°C° 0 mm 4 m/s 633 mmHg 34%
    13:00 +28°C° 0 mm 4 m/s 633 mmHg 34%
    14:00 +28°C° 0 mm 4 m/s 632 mmHg 34%
    15:00 +28°C° 0 mm 4 m/s 632 mmHg 34%
    16:00 +27°C° 0 mm 4 m/s 631 mmHg 39%
    17:00 +25°C° 0 mm 4 m/s 631 mmHg 43%
    18:00 +24°C° 0 mm 3 m/s 631 mmHg 48%
    19:00 +22°C° 0 mm 3 m/s 631 mmHg 52%
    20:00 +20°C° 0 mm 2 m/s 631 mmHg 57%
    21:00 +19°C° 0 mm 2 m/s 631 mmHg 61%
    22:00 +19°C° 0 mm 2 m/s 631 mmHg 61%
    23:00 +18°C° 0 mm 2 m/s 630 mmHg 61%

    23 Iulie, Luni

    Timp Temperatura Precipitaţii Vânt Presiune Umiditate
    00:00 +18°C° 0 mm 2 m/s 630 mmHg 60%
    01:00 +18°C° 0 mm 2 m/s 630 mmHg 61%
    02:00 +18°C° 0 mm 2 m/s 630 mmHg 61%
    03:00 +18°C° 0 mm 2 m/s 630 mmHg 61%
    04:00 +18°C° 0 mm 2 m/s 630 mmHg 60%
    05:00 +19°C° 0 mm 2 m/s 630 mmHg 59%
    06:00 +19°C° 0 mm 2 m/s 631 mmHg 58%
    07:00 +21°C° 0 mm 3 m/s 631 mmHg 52%
    08:00 +24°C° 0 mm 3 m/s 632 mmHg 47%
    09:00 +25°C° 0 mm 3 m/s 632 mmHg 42%
    10:00 +26°C° 0 mm 3 m/s 632 mmHg 39%
    11:00 +28°C° 0 mm 4 m/s 632 mmHg 36%
    12:00 +29°C° 0 mm 4 m/s 632 mmHg 33%
    13:00 +29°C° 0 mm 4 m/s 631 mmHg 33%
    14:00 +29°C° 0 mm 4 m/s 631 mmHg 33%
    15:00 +29°C° 0 mm 4 m/s 631 mmHg 32%
    16:00 +28°C° 0 mm 4 m/s 630 mmHg 36%
    17:00 +26°C° 0 mm 3 m/s 630 mmHg 40%
    18:00 +25°C° 0 mm 3 m/s 629 mmHg 44%
    19:00 +24°C° 0 mm 2 m/s 629 mmHg 48%
    20:00 +21°C° 0 mm 2 m/s 629 mmHg 51%
    21:00 +20°C° 0 mm 2 m/s 629 mmHg 55%
    22:00 +20°C° 0 mm 2 m/s 629 mmHg 54%
    23:00 +21°C° 0 mm 1 m/s 629 mmHg 53%

    24 Iulie, Marţi

    Timp Temperatura Precipitaţii Vânt Presiune Umiditate
    00:00 +20°C° 0 mm 1 m/s 629 mmHg 52%
    01:00 +20°C° 0 mm 1 m/s 629 mmHg 52%
    02:00 +20°C° 0 mm 1 m/s 629 mmHg 53%
    03:00 +19°C° 0 mm 1 m/s 629 mmHg 54%
    04:00 +19°C° 0 mm 2 m/s 630 mmHg 53%
    05:00 +20°C° 0 mm 2 m/s 630 mmHg 52%
    06:00 +20°C° 0 mm 2 m/s 631 mmHg 50%
    07:00 +23°C° 0 mm 2 m/s 631 mmHg 45%
    08:00 +25°C° 0 mm 2 m/s 632 mmHg 40%
    09:00 +27°C° 0 mm 2 m/s 632 mmHg 35%
    10:00 +28°C° 0 mm 3 m/s 632 mmHg 33%
    11:00 +29°C° 0 mm 3 m/s 632 mmHg 30%
    12:00 +30°C° 0 mm 3 m/s 632 mmHg 28%
    13:00 +30°C° 0 mm 4 m/s 632 mmHg 29%
    14:00 +32°C° 0 mm 4 m/s 632 mmHg 29%
    15:00 +32°C° 0 mm 4 m/s 632 mmHg 30%
    16:00 +29°C° 0 mm 4 m/s 632 mmHg 34%
    17:00 +28°C° 0 mm 3 m/s 631 mmHg 38%
    18:00 +26°C° 0 mm 3 m/s 631 mmHg 42%
    19:00 +25°C° 0 mm 3 m/s 631 mmHg 46%
    20:00 +23°C° 0 mm 2 m/s 631 mmHg 50%
    21:00 +22°C° 0 mm 1 m/s 631 mmHg 54%
    22:00 +21°C° 0 mm 1 m/s 631 mmHg 54%
    23:00 +21°C° 0 mm 1 m/s 631 mmHg 53%

    25 Iulie, Miercuri

    Timp Temperatura Precipitaţii Vânt Presiune Umiditate
    00:00 +21°C° 0 mm 1 m/s 631 mmHg 53%
    01:00 +21°C° 0 mm 1 m/s 631 mmHg 53%
    02:00 +21°C° 0 mm 1 m/s 631 mmHg 53%
    03:00 +21°C° 0 mm 1 m/s 631 mmHg 53%
    04:00 +21°C° 0 mm 1 m/s 632 mmHg 51%
    05:00 +21°C° 0 mm 2 m/s 632 mmHg 50%
    06:00 +23°C° 0 mm 2 m/s 632 mmHg 48%
    07:00 +25°C° 0 mm 2 m/s 633 mmHg 44%
    08:00 +26°C° 0 mm 2 m/s 633 mmHg 39%
    09:00 +28°C° 0 mm 3 m/s 634 mmHg 35%
    10:00 +30°C° 0 mm 3 m/s 633 mmHg 33%
    11:00 +31°C° 0 mm 3 m/s 633 mmHg 31%
    12:00 +33°C° 0 mm 4 m/s 633 mmHg 29%
    13:00 +33°C° 0 mm 4 m/s 633 mmHg 29%
    14:00 +33°C° 0 mm 4 m/s 633 mmHg 29%
    15:00 +33°C° 0 mm 4 m/s 632 mmHg 30%
    16:00 +32°C° 0 mm 4 m/s 632 mmHg 34%
    17:00 +29°C° 0 mm 3 m/s 632 mmHg 39%
    18:00 +28°C° 0 mm 3 m/s 631 mmHg 43%
    19:00 +26°C° 0 mm 2 m/s 631 mmHg 49%
    20:00 +25°C° 0 mm 2 m/s 631 mmHg 55%
    21:00 +23°C° 0 mm 1 m/s 631 mmHg 61%
    22:00 +23°C° 0 mm 1 m/s 631 mmHg 60%
    23:00 +23°C° 0 mm 1 m/s 631 mmHg 59%
    Arată mai mult